Location: Milton Keynes
(52.0316°N, 0.7531°W)
Time: 16:43:27
(UTC+00:00)

ATV-4 - Visible Passes

Search period start: 30 November 2023 00:00
Search period end: 10 December 2023 00:00
Orbit: 308 x 318 km, 51.6° (Epoch: 02 November)

Date Brightness Start Highest point End Pass type
(mag) Time Alt. Az. Time Alt. Az. Time Alt. Az.
30 Nov 6.3 03:26:27 47° SW 03:27:10 47° SW 04:25:24 10° S visible
30 Nov 4.5 17:39:02 10° S 17:44:42 26° ESE 17:48:59 20° E visible
30 Nov 4.6 21:26:29 10° WSW 22:00:27 18° E 22:08:41 10° E visible
01 Dec 6.3 01:43:19 60° S 01:43:19 60° S 02:36:03 10° SSE visible
01 Dec 6.7 05:26:10 22° W 05:36:09 25° WSW 06:17:58 10° SW visible
01 Dec 4.0 19:40:37 10° SW 19:48:11 65° SE 19:49:17 63° ESE visible
01 Dec 5.9 23:31:16 10° W 00:00:38 44° ESE 00:36:19 10° ESE visible
02 Dec 6.3 03:43:35 45° WSW 03:46:57 46° SW 04:46:27 10° S visible
02 Dec 4.4 17:57:06 10° S 18:03:19 30° ESE 18:07:13 25° E visible
02 Dec 4.8 21:45:15 10° W 22:18:28 23° E 22:32:25 10° E visible
03 Dec 6.2 02:01:29 63° S 02:01:29 63° S 02:59:51 10° SSE visible
03 Dec 6.8 05:44:31 20° W 05:56:55 23° WSW 06:37:25 10° SW visible
03 Dec 4.1 20:00:20 10° SW 20:08:26 70° SSE 20:08:46 69° SE visible
03 Dec 6.0 23:51:25 10° WNW 00:19:53 51° ESE 01:02:33 10° ESE visible
04 Dec 6.4 04:03:00 42° WSW 04:09:19 44° WSW 05:09:29 10° S visible
04 Dec 4.4 18:17:33 10° S 18:24:18 35° ESE 18:27:48 30° E visible
04 Dec 5.0 22:06:26 10° W 22:38:46 29° E 22:59:28 10° E visible
05 Dec 6.2 02:21:58 64° SSW 02:21:58 64° SSW 03:25:58 10° SSE visible
05 Dec 6.8 06:05:12 17° W 06:20:04 21° WSW 06:58:04 10° SW visible
05 Dec 4.2 20:22:28 10° SW 20:58:09 11° ENE 20:59:29 10° ENE visible
06 Dec 6.2 00:41:27 59° SE 00:41:27 59° SE 01:31:34 10° SE visible
06 Dec 6.4 04:24:45 38° W 04:34:16 41° WSW 05:34:22 10° S visible
06 Dec 4.4 18:40:25 10° SSW 18:47:43 41° ESE 18:50:42 37° E visible
06 Dec 5.3 22:30:02 10° W 23:01:25 36° E 23:29:53 10° E visible
07 Dec 6.2 02:44:47 62° SW 02:46:00 62° SW 03:54:13 10° SSE visible
07 Dec 6.9 06:28:11 13° WNW 06:45:31 19° W 07:19:31 10° SW visible
07 Dec 5.2 17:02:54 10° SE 17:07:18 14° E 17:11:17 12° ENE visible
07 Dec 4.4 20:47:00 10° WSW 21:21:52 17° ENE 21:29:22 10° ENE visible
08 Dec 6.3 01:05:20 67° SE 01:05:20 67° SE 02:03:06 10° SE visible
08 Dec 6.5 04:48:48 33° W 05:01:44 38° WSW 06:00:55 10° SSW visible
08 Dec 4.4 19:05:42 10° SSW 19:13:37 49° SE 19:15:58 45° ESE visible
08 Dec 5.5 22:56:06 10° W 23:26:22 45° E 00:03:34 10° ESE visible
09 Dec 6.2 03:09:55 57° WSW 03:14:56 59° SW 04:24:26 10° SSE visible
09 Dec 7.0 06:53:48 10° WNW 07:13:09 16° W 07:41:02 10° WSW visible
09 Dec 5.1 17:27:53 10° SE 17:33:53 20° E 17:37:38 17° E visible
09 Dec 4.6 21:14:00 10° WSW 21:47:54 24° ENE 22:02:48 10° E visible
